Tracking 29892 objects as of 21-Nov-2024
HD Live streaming from Space Station
objects crossing your sky now

STARLINK-32424

Track STARLINK-32424 now!
10-day predictions
STARLINK-32424 is classified as:


NORAD ID: 61548
Int'l Code: 2024-184S
Perigee: 453.8 km
Apogee: 454.9 km
Inclination: 53.2 °
Period: 93.5 minutes
Semi major axis: 6825 km
RCS: Unknown
Launch date: October 15, 2024
Source: United States (US)
Launch site: AIR FORCE WESTERN TEST RANGE (AFWTR)
Your satellite tracking list
Your tracking list is empty




NASA's NSSDC Master Catalog

Two Line Element Set (TLE):
1 61548U 24184S   24325.29592680  .00001598  00000-0  49894-4 0  9991
2 61548  53.1594  63.2485 0000834  82.2729 277.8371 15.39636137  5796
Source of the keplerian elements: AFSPC